Location: Lawrence
(38.9720°N, 95.2350°W)
Time: 18:15:13
(UTC-05:00)

Amateur Radio Satellites - All Passes

Search period start: 24 August 2016 17:45
Search period end: 25 August 2016 17:45
Location: Lawrence, 38.9720°N, 95.2350°W

Satellite Date Start Highest point End Downlink Frequencies (MHz)
Time Altitude Azimuth
Cosmos 2491 24 Aug 17:47:42 17:53:25 20° 79° (E) 17:59:07 435.465 / 435.565
SRMSAT 24 Aug 17:48:31 17:49:58 11° 183° (S) 17:51:25 437.500
HORYU 2 24 Aug 18:02:37 18:06:56 47° 260° (W) 18:11:15 437.375
YUBILEINY 24 Aug 18:06:37 18:15:09 52° 77° (ENE) 18:23:35 435.215
GOMX 1 24 Aug 18:28:28 18:33:12 47° 72° (ENE) 18:38:15 467.674
STARS 24 Aug 18:29:25 18:33:29 37° 289° (WNW) 18:37:29 437.465
CUBESAT XI-V 24 Aug 18:33:06 18:37:49 75° 102° (ESE) 18:42:31 437.345
BRITE-PL 24 Aug 18:34:22 18:39:00 69° 259° (W) 18:44:05 437.365/2234.400
Cubesat XI-IV 24 Aug 18:36:15 18:41:32 62° 72° (ENE) 18:46:48 437.490
LilacSat-2 24 Aug 18:39:53 18:43:42 62° 75° (ENE) 18:47:30 437.200
Cosmos 2504 24 Aug 18:40:17 18:46:14 26° 70° (ENE) 18:52:03 435.465 / 435.565
CUTE-I 24 Aug 18:49:12 18:54:33 82° 75° (ENE) 18:59:54 437.470
DOVE 4 24 Aug 18:53:07 18:57:48 39° 71° (ENE) 19:02:41 437.250
NOAA 18 24 Aug 18:59:12 19:04:46 87° 254° (WSW) 19:10:20 137.9125
BEESAT 3 24 Aug 19:01:45 19:04:09 15° 45° (NE) 19:06:32 437.485
HO-68 24 Aug 19:02:08 19:07:27 23° 59° (ENE) 19:12:46 435.675
NOAA 15 24 Aug 19:02:21 19:07:30 58° 259° (W) 19:12:42 137.62
Cosmos 2491 24 Aug 19:40:25 19:49:07 80° 278° (W) 19:57:56 435.465 / 435.565
SEEDS 24 Aug 19:54:17 19:57:24 21° 68° (ENE) 20:00:32 437.485
CINEMA 3 24 Aug 19:59:17 20:04:07 51° 73° (ENE) 20:08:58 145.822/145.860
YUBILEINY 24 Aug 20:04:04 20:11:30 32° 276° (W) 20:18:53 435.215
STRAND 1 24 Aug 20:06:09 20:10:48 35° 97° (E) 20:15:26 437.568
CANX-2 24 Aug 20:07:33 20:11:36 49° 74° (ENE) 20:15:40 2200.000
GOMX 1 24 Aug 20:08:05 20:11:33 19° 269° (W) 20:15:13 467.674
CUBESAT XI-V 24 Aug 20:13:02 20:14:32 11° 298° (WNW) 20:16:02 437.345
BEESAT 2 24 Aug 20:13:02 20:16:50 39° 54° (NE) 20:20:35 435.950
CUTE 1.7 + AOD 2 24 Aug 20:14:21 20:18:25 51° 74° (ENE) 20:22:30 437.475
Cubesat XI-IV 24 Aug 20:18:54 20:21:59 15° 268° (W) 20:25:04 437.490
DOVE 4 24 Aug 20:31:30 20:35:34 24° 267° (W) 20:39:48 437.250
Cosmos 2504 24 Aug 20:32:58 20:39:55 51° 270° (W) 20:46:45 435.465 / 435.565
CUTE-I 24 Aug 20:33:45 20:35:10 11° 271° (W) 20:36:36 437.470
AAUSAT CUBESAT 2 24 Aug 20:34:51 20:38:30 32° 71° (ENE) 20:42:09 437.432
BEESAT 3 24 Aug 20:38:15 20:42:07 52° 243° (WSW) 20:45:57 437.485
COMPASS 1 24 Aug 20:39:05 20:43:01 46° 74° (ENE) 20:46:59 437.405
CUBEBUG 2 24 Aug 20:41:03 20:45:26 39° 72° (ENE) 20:49:45 437.445
UWE-3 24 Aug 20:46:28 20:50:27 30° 70° (ENE) 20:54:23 435.000/436.395/437.385
HO-68 24 Aug 20:47:19 20:54:29 70° 256° (WSW) 21:01:42 435.675
Oscar 11 24 Aug 20:47:44 20:50:44 19° 67° (ENE) 20:53:44 145.826/435.025
FUNcube-1 24 Aug 20:50:16 20:53:27 19° 68° (ENE) 20:56:35 145.935
ZACube-1 24 Aug 21:08:50 21:12:50 32° 71° (ENE) 21:16:47 437.345
DELFI C3 24 Aug 21:10:01 21:11:32 12° 65° (ENE) 21:13:03 145.870
PCSat 24 Aug 21:11:56 21:15:43 19° 46° (NE) 21:19:28 145.827
AIST 1 24 Aug 21:23:30 21:27:53 61° 81° (E) 21:32:13
PRISM 24 Aug 21:23:43 21:27:02 22° 96° (E) 21:30:20 437.425
SEEDS 24 Aug 21:29:17 21:32:55 29° 263° (W) 21:36:34 437.485
CINEMA 3 24 Aug 21:38:13 21:41:29 17° 268° (W) 21:44:46 145.822/145.860
Cosmos 2491 24 Aug 21:42:51 21:47:28 15° 299° (WNW) 21:52:09 435.465 / 435.565
STRAND 1 24 Aug 21:45:37 21:49:48 26° 293° (WNW) 21:54:00 437.568
CANX-2 24 Aug 21:45:57 21:47:44 12° 269° (W) 21:49:31 2200.000
BEESAT 2 24 Aug 21:51:46 21:54:20 17° 250° (WSW) 21:56:53 435.950
CUTE 1.7 + AOD 2 24 Aug 21:52:55 21:54:32 12° 269° (W) 21:56:10 437.475
AIST 2 24 Aug 21:55:49 21:59:10 23° 49° (NE) 22:02:30 435.215
AAUSAT CUBESAT 2 24 Aug 22:11:10 22:14:02 18° 266° (W) 22:16:55 437.432
COMPASS 1 24 Aug 22:16:57 22:18:49 13° 269° (W) 22:20:41 437.405
CUBEBUG 2 24 Aug 22:18:43 22:22:08 20° 266° (W) 22:25:32 437.445
Oscar 11 24 Aug 22:22:38 22:26:35 36° 262° (W) 22:30:34 145.826/435.025
GONETS M04 24 Aug 22:22:58 22:27:53 16° 61° (ENE) 22:32:46
UWE-3 24 Aug 22:23:04 22:26:52 25° 265° (W) 22:30:37 435.000/436.395/437.385
HUMSAT D 24 Aug 22:24:45 22:28:44 44° 73° (ENE) 22:32:41 437.325/437.525
FUNcube-1 24 Aug 22:25:16 22:29:25 37° 262° (W) 22:33:32 145.935
DELFI C3 24 Aug 22:42:08 22:45:55 48° 260° (W) 22:49:46 145.870
ZACube-1 24 Aug 22:45:40 22:49:08 22° 265° (W) 22:52:34 437.345
UNISAT 6 24 Aug 22:47:23 22:50:28 19° 94° (E) 22:53:32 437.425
PCSat 24 Aug 22:54:14 22:59:38 69° 245° (WSW) 23:05:00 145.827
PRISM 24 Aug 22:58:44 23:02:17 27° 291° (WNW) 23:05:50 437.425
AUBIESAT-1 24 Aug 23:03:48 23:08:16 54° 69° (ENE) 23:12:48 437.475
AIST 1 24 Aug 23:04:18 23:04:51 10° 277° (W) 23:05:24
M-CUBED/EXP-1 PRIME 24 Aug 23:06:21 23:10:56 70° 70° (ENE) 23:15:40 437.505
VELOX 1 24 Aug 23:22:16 23:25:15 18° 66° (ENE) 23:28:16 145.980
ANTELSAT 24 Aug 23:23:38 23:27:50 49° 100° (E) 23:31:57 437.575/2403.000
CUBEBUG 1 24 Aug 23:32:16 23:35:56 27° 69° (ENE) 23:39:40 437.445
AIST 2 24 Aug 23:33:54 23:37:43 34° 245° (WSW) 23:41:30 435.215
Cosmos 2499 24 Aug 23:47:10 23:53:38 37° 74° (ENE) 00:00:05 435.465 / 435.565
ESTCUBE 1 24 Aug 23:47:15 23:51:39 62° 74° (ENE) 23:56:06 437.505/2401.250
DX 1 24 Aug 23:50:13 23:53:44 24° 68° (ENE) 23:57:15 434.975-435.025
TIGRISAT 24 Aug 23:55:31 23:59:49 73° 285° (WNW) 00:04:02 435.000
CUSAT 1 24 Aug 23:56:45 23:58:42 18° 89° (E) 00:00:51 437.405
QB50P1 25 Aug 00:01:37 00:04:29 18° 93° (E) 00:07:20 145.935-145.965
HUMSAT D 25 Aug 00:02:24 00:04:33 14° 268° (W) 00:06:42 437.325/437.525
SPROUT 25 Aug 00:05:27 00:08:59 25° 69° (ENE) 00:12:31 437.525
AISAT 25 Aug 00:09:13 00:13:35 61° 74° (ENE) 00:18:01 437.250
POPSAT HIP 1 25 Aug 00:10:56 00:14:15 22° 95° (E) 00:17:32 437.405
RS-15 25 Aug 00:15:23 00:19:08 12° 93° (E) 00:22:54 29.354- 29.394
GONETS M04 25 Aug 00:17:17 00:26:12 81° 82° (E) 00:35:03
UNISAT 6 25 Aug 00:23:24 00:27:16 33° 289° (WNW) 00:31:05 437.425
50 SAT 25 Aug 00:27:43 00:31:17 80° 257° (WSW) 00:34:53 437.505
UKube-1 25 Aug 00:36:06 00:40:21 61° 74° (ENE) 00:44:38 .
TISAT 1 25 Aug 00:38:19 00:40:11 13° 64° (ENE) 00:42:03 437.305
QB50P2 25 Aug 00:39:50 00:43:59 53° 100° (E) 00:48:06 145.880/145.840
AUBIESAT-1 25 Aug 00:40:16 00:42:57 15° 264° (W) 00:45:41 437.475
DUCHIFAT 1 25 Aug 00:42:01 00:46:04 45° 99° (E) 00:50:05 145.980
POLYITAN 1 25 Aug 00:42:23 00:46:32 53° 100° (E) 00:50:37 437.675
M-CUBED/EXP-1 PRIME 25 Aug 00:44:10 00:45:51 12° 265° (W) 00:47:34 437.505
NANOSAT C BR1 25 Aug 00:54:05 00:58:17 70° 101° (E) 01:02:28 145.865
VELOX 1 25 Aug 00:57:13 01:01:23 40° 261° (W) 01:05:36 145.980
SO-50 25 Aug 00:59:56 01:04:46 74° 120° (ESE) 01:09:37 436.795
ANTELSAT 25 Aug 01:01:54 01:04:05 14° 296° (WNW) 01:06:16 437.575/2403.000
O/OREOS (USA 219) 25 Aug 01:04:46 01:09:22 73° 68° (ENE) 01:13:58 437.305
CUBEBUG 1 25 Aug 01:08:31 01:12:09 25° 265° (W) 01:15:49 437.445
JAS-2 25 Aug 01:13:43 01:20:20 56° 101° (E) 01:27:39 435.910
DX 1 25 Aug 01:26:01 01:29:47 28° 263° (W) 01:33:34 434.975-435.025
ESTCUBE 1 25 Aug 01:27:29 01:28:51 11° 270° (W) 01:30:12 437.505/2401.250
QB50P1 25 Aug 01:36:30 01:40:22 35° 289° (WNW) 01:44:10 145.935-145.965
CUSAT 1 25 Aug 01:39:56 01:40:46 11° 294° (WNW) 01:41:39 437.405
Cosmos 2499 25 Aug 01:40:23 01:46:38 35° 272° (W) 01:52:53 435.465 / 435.565
SPROUT 25 Aug 01:41:11 01:44:49 26° 264° (W) 01:48:28 437.525
POPSAT HIP 1 25 Aug 01:46:24 01:50:00 28° 290° (WNW) 01:53:36 437.405
AISAT 25 Aug 01:49:03 01:50:26 11° 269° (W) 01:51:51 437.250
SWISSCUBE 25 Aug 01:49:07 01:52:17 18° 65° (ENE) 01:55:28 437.505
BUGSAT 1 25 Aug 01:50:40 01:54:49 66° 284° (WNW) 01:58:51 437.445
Oscar 19 25 Aug 02:03:12 02:07:36 27° 96° (E) 02:11:59 437.125/150
DANDE 25 Aug 02:05:24 02:07:09 16° 286° (WNW) 02:08:56 436.750
BEESAT 25 Aug 02:05:55 02:09:41 24° 67° (ENE) 02:13:28 436.000
TISAT 1 25 Aug 02:11:10 02:15:20 55° 260° (W) 02:19:32 437.305
UKube-1 25 Aug 02:15:46 02:16:46 11° 269° (W) 02:17:46 .
GONETS M04 25 Aug 02:16:05 02:21:53 20° 281° (W) 02:27:42
QB50P2 25 Aug 02:17:23 02:19:19 13° 296° (WNW) 02:21:14 145.880/145.840
RS-15 25 Aug 02:17:41 02:28:55 66° 114° (ESE) 02:40:49 29.354- 29.394
DUCHIFAT 1 25 Aug 02:19:03 02:21:21 15° 295° (WNW) 02:23:40 145.980
POLYITAN 1 25 Aug 02:19:59 02:21:51 13° 296° (WNW) 02:23:41 437.675
SO-50 25 Aug 02:42:41 02:45:47 17° 317° (NW) 02:48:51 436.795
Gurwin Techsat 1B 25 Aug 02:47:57 02:52:45 33° 97° (E) 02:57:31 435.225
ITUPSAT 1 25 Aug 02:50:05 02:54:48 66° 75° (ENE) 02:59:32 437.325
JAS-2 25 Aug 02:59:35 03:05:02 28° 294° (WNW) 03:10:57 435.910
PHONESAT 2.4 25 Aug 03:03:34 03:05:46 19° 150° (SSE) 03:07:58 2401.200-2431.200
KKS-1 25 Aug 03:07:18 03:08:20 11° 62° (ENE) 03:09:22 437.445
ITAMSAT 1 25 Aug 03:11:28 03:14:31 16° 92° (E) 03:17:34 435.822/435.867
AO-7 25 Aug 03:16:13 03:18:08 11° 88° (E) 03:20:02 29.400- 29.500
SWISSCUBE 25 Aug 03:25:08 03:29:42 46° 260° (W) 03:34:17 437.505
Oscar 19 25 Aug 03:42:15 03:46:55 34° 291° (WNW) 03:51:34 437.125/150
BEESAT 25 Aug 03:42:58 03:47:16 34° 262° (W) 03:51:36 436.000
STARS 25 Aug 03:50:04 03:52:39 15° 64° (ENE) 03:55:14 437.465
MOZHAYETS 4 25 Aug 04:23:12 04:27:46 88° 81° (E) 04:32:22
Gurwin Techsat 1B 25 Aug 04:28:02 04:32:34 29° 293° (WNW) 04:37:05 435.225
RS-15 25 Aug 04:31:20 04:42:09 41° 318° (NW) 04:53:30 29.354- 29.394
ITUPSAT 1 25 Aug 04:31:21 04:33:03 12° 269° (W) 04:34:46 437.325
PHONESAT 2.4 25 Aug 04:38:50 04:41:50 80° 164° (SSE) 04:44:50 2401.200-2431.200
KKS-1 25 Aug 04:39:46 04:44:14 75° 257° (WSW) 04:48:45 437.445
ITAMSAT 1 25 Aug 04:49:16 04:54:21 58° 288° (WNW) 04:59:24 435.822/435.867
AO-7 25 Aug 05:03:55 05:12:14 70° 105° (ESE) 05:20:28 29.400- 29.500
STARS 25 Aug 05:24:16 05:28:34 49° 260° (W) 05:32:53 437.465
CUBESAT XI-V 25 Aug 05:34:59 05:39:30 62° 75° (ENE) 05:44:04 437.345
Cosmos 2491 25 Aug 05:52:22 06:00:53 50° 76° (ENE) 06:09:21 435.465 / 435.565
HORYU 2 25 Aug 05:54:44 05:58:45 33° 98° (E) 06:02:44 437.375
PHONESAT 2.4 25 Aug 06:15:18 06:18:17 61° 1° (N) 06:21:15 2401.200-2431.200
GOMX 1 25 Aug 06:32:40 06:36:16 18° 90° (E) 06:39:45 467.674
AO-85 25 Aug 06:37:44 06:43:03 70° 119° (ESE) 06:48:06 145.980
BRITE-PL 25 Aug 06:39:52 06:45:23 47° 98° (E) 06:50:46 437.365/2234.400
RS-15 25 Aug 06:51:14 06:59:27 20° 351° (N) 07:07:48 29.354- 29.394
Cubesat XI-IV 25 Aug 06:55:13 06:59:41 27° 96° (E) 07:04:07 437.490
DOVE 4 25 Aug 06:55:51 06:57:35 12° 88° (E) 06:59:18 437.250
AO-7 25 Aug 06:57:45 07:04:17 27° 304° (WNW) 07:10:50 29.400- 29.500
YUBILEINY 25 Aug 07:05:25 07:14:05 63° 91° (E) 07:22:45 435.215
CUTE-I 25 Aug 07:07:45 07:12:37 36° 97° (E) 07:17:27 437.470
CUBESAT XI-V 25 Aug 07:15:38 07:17:17 12° 270° (W) 07:18:56 437.345
Cosmos 2504 25 Aug 07:17:07 07:23:43 26° 84° (E) 07:30:01 435.465 / 435.565
NOAA 15 25 Aug 07:18:32 07:23:47 59° 101° (ESE) 07:29:00 137.62
STRAND 1 25 Aug 07:20:45 07:25:35 44° 71° (ENE) 07:30:25 437.568
NOAA 18 25 Aug 07:22:43 07:27:56 43° 99° (E) 07:33:06 137.9125
HORYU 2 25 Aug 07:31:47 07:35:06 21° 293° (WNW) 07:38:23 437.375
LilacSat-2 25 Aug 07:48:32 07:52:19 70° 283° (WNW) 07:56:02 437.200
Cosmos 2491 25 Aug 07:49:43 07:57:21 35° 275° (W) 08:05:00 435.465 / 435.565
PHONESAT 2.4 25 Aug 07:51:43 07:54:41 65° 198° (SSW) 07:57:39 2401.200-2431.200
CINEMA 3 25 Aug 07:57:44 07:59:34 12° 89° (E) 08:01:22 145.822/145.860
GOMX 1 25 Aug 08:09:21 08:14:41 56° 287° (WNW) 08:19:47 467.674
PRISM 25 Aug 08:13:03 08:15:17 14° 65° (ENE) 08:17:33 437.425
HO-68 25 Aug 08:17:17 08:22:55 24° 94° (E) 08:28:30 435.675
BRITE-PL 25 Aug 08:18:59 08:23:28 25° 294° (WNW) 08:27:56 437.365/2234.400
AO-85 25 Aug 08:20:18 08:23:57 19° 315° (NW) 08:27:29 145.980
DOVE 4 25 Aug 08:30:45 08:35:52 72° 285° (WNW) 08:40:41 437.250
Cubesat XI-IV 25 Aug 08:34:57 08:39:47 36° 291° (WNW) 08:44:35 437.490
CUTE-I 25 Aug 08:48:04 08:52:30 28° 293° (WNW) 08:56:55 437.470
NOAA 15 25 Aug 08:59:36 09:03:03 18° 297° (WNW) 09:06:30 137.62
STRAND 1 25 Aug 09:01:14 09:04:56 20° 266° (W) 09:08:39 437.568
NOAA 18 25 Aug 09:03:59 09:08:18 24° 296° (WNW) 09:12:36 137.9125
YUBILEINY 25 Aug 09:04:11 09:11:26 28° 291° (WNW) 09:18:43 435.215
Cosmos 2504 25 Aug 09:08:02 09:16:31 62° 280° (W) 09:24:28 435.465 / 435.565
RS-15 25 Aug 09:08:10 09:18:06 27° 28° (NNE) 09:28:00 29.354- 29.394
SEEDS 25 Aug 09:13:37 09:17:41 46° 99° (E) 09:21:43 437.485
PHONESAT 2.4 25 Aug 09:28:58 09:30:41 14° 213° (SSW) 09:32:24 2401.200-2431.200
CANX-2 25 Aug 09:29:11 09:33:24 67° 284° (WNW) 09:37:36 2200.000
CINEMA 3 25 Aug 09:32:38 09:37:08 56° 286° (WNW) 09:41:23 145.822/145.860
SO-50 25 Aug 09:32:48 09:37:15 45° 54° (NE) 09:41:33 436.795
CUTE 1.7 + AOD 2 25 Aug 09:35:53 09:40:05 65° 285° (WNW) 09:44:17 437.475
UNISAT 6 25 Aug 09:45:19 09:48:18 17° 66° (ENE) 09:51:16 437.425
PRISM 25 Aug 09:46:19 09:50:12 43° 260° (W) 09:54:08 437.425
AIST 1 25 Aug 09:51:29 09:55:28 37° 91° (E) 09:59:30
AAUSAT CUBESAT 2 25 Aug 09:52:55 09:57:06 72° 102° (ESE) 10:01:14 437.432
COMPASS 1 25 Aug 09:58:08 10:02:18 76° 285° (WNW) 10:06:29 437.405
ISS 25 Aug 10:01:10 10:04:21 49° 137° (SE) 10:07:33 145.825
HO-68 25 Aug 10:03:59 10:11:00 60° 291° (WNW) 10:17:58 435.675
CUBEBUG 2 25 Aug 10:09:30 10:13:47 80° 283° (WNW) 10:17:55 437.445
Oscar 11 25 Aug 10:10:37 10:14:43 42° 98° (E) 10:18:48 145.826/435.025
UWE-3 25 Aug 10:13:05 10:17:18 73° 101° (E) 10:21:26 435.000/436.395/437.385
FUNcube-1 25 Aug 10:14:18 10:18:15 41° 98° (E) 10:22:09 145.935
ANTELSAT 25 Aug 10:20:52 10:25:10 39° 72° (ENE) 10:29:25 437.575/2403.000
DELFI C3 25 Aug 10:21:13 10:24:19 21° 95° (E) 10:27:25 145.870
CUSAT 1 25 Aug 10:26:36 10:32:00 29° 74° (ENE) 10:38:18 437.405
BEESAT 3 25 Aug 10:27:38 10:31:07 32° 114° (ESE) 10:34:38 437.485
ZACube-1 25 Aug 10:34:02 10:38:13 80° 103° (ESE) 10:42:21 437.345
SEEDS 25 Aug 10:50:42 10:52:58 14° 294° (WNW) 10:55:15 437.485
TIGRISAT 25 Aug 10:52:14 10:56:53 82° 77° (ENE) 11:01:28 435.000
QB50P1 25 Aug 10:54:07 10:55:56 13° 64° (ENE) 10:57:46 145.935-145.965
DANDE 25 Aug 10:57:44 11:01:21 18° 74° (ENE) 11:05:33 436.750
POPSAT HIP 1 25 Aug 11:03:02 11:05:36 16° 65° (ENE) 11:08:08 437.405
Cosmos 2504 25 Aug 11:10:27 11:11:28 10° 300° (WNW) 11:12:30 435.465 / 435.565
SO-50 25 Aug 11:14:15 11:17:19 18° 250° (WSW) 11:20:21 436.795
UNISAT 6 25 Aug 11:20:11 11:24:39 46° 261° (W) 11:29:04 437.425
RS-15 25 Aug 11:20:55 11:33:21 72° 55° (NE) 11:45:29 29.354- 29.394
GONETS M04 25 Aug 11:24:09 11:29:26 18° 78° (ENE) 11:34:42
JAS-2 25 Aug 11:28:10 11:31:20 16° 61° (ENE) 11:34:35 435.910
AIST 1 25 Aug 11:30:24 11:33:13 17° 288° (WNW) 11:36:03
QB50P2 25 Aug 11:31:12 11:35:03 34° 71° (ENE) 11:38:55 145.880/145.840
DUCHIFAT 1 25 Aug 11:32:44 11:36:25 29° 70° (ENE) 11:40:06 145.980
POLYITAN 1 25 Aug 11:33:42 11:37:35 34° 71° (ENE) 11:41:28 437.675
ISS 25 Aug 11:38:20 11:40:59 22° 334° (NNW) 11:43:38 145.825
BEESAT 2 25 Aug 11:40:54 11:44:50 72° 303° (WNW) 11:48:49 435.950
ESTCUBE 1 25 Aug 11:42:22 11:44:51 14° 92° (E) 11:47:18 437.505/2401.250
HUMSAT D 25 Aug 11:44:29 11:48:34 80° 285° (WNW) 11:52:38 437.325/437.525
NANOSAT C BR1 25 Aug 11:44:46 11:48:48 42° 72° (ENE) 11:52:50 145.865
Oscar 11 25 Aug 11:47:49 11:50:29 16° 294° (WNW) 11:53:10 145.826/435.025
FUNcube-1 25 Aug 11:51:45 11:54:07 15° 294° (WNW) 11:56:29 145.935
PCSat 25 Aug 11:53:20 11:56:53 18° 105° (ESE) 12:00:27 145.827
DELFI C3 25 Aug 11:55:46 11:59:06 26° 290° (WNW) 12:02:27 145.870
HO-68 25 Aug 11:55:47 11:57:14 11° 310° (NW) 11:58:41 435.675
ANTELSAT 25 Aug 11:58:42 12:01:58 19° 266° (W) 12:05:14 437.575/2403.000
AISAT 25 Aug 12:02:28 12:04:27 13° 91° (E) 12:06:25 437.250
BEESAT 3 25 Aug 12:05:45 12:08:49 21° 311° (NW) 12:11:55 437.485
CUSAT 1 25 Aug 12:08:01 12:14:02 49° 265° (W) 12:21:17 437.405
AUBIESAT-1 25 Aug 12:18:45 12:22:41 43° 103° (ESE) 12:26:18 437.475
M-CUBED/EXP-1 PRIME 25 Aug 12:21:55 12:26:05 61° 106° (ESE) 12:29:53 437.505
Cosmos 2499 25 Aug 12:21:57 12:29:08 34° 87° (E) 12:35:52 435.465 / 435.565
UKube-1 25 Aug 12:26:58 12:28:04 11° 91° (E) 12:29:10 .
QB50P1 25 Aug 12:27:00 12:31:13 57° 260° (W) 12:35:25 145.935-145.965
POPSAT HIP 1 25 Aug 12:36:53 12:40:59 44° 261° (W) 12:45:06 437.405
BUGSAT 1 25 Aug 12:38:32 12:42:45 70° 75° (ENE) 12:47:00 437.445
DANDE 25 Aug 12:38:55 12:44:05 61° 263° (W) 12:50:51 436.750
VELOX 1 25 Aug 12:48:16 12:52:29 39° 99° (E) 12:56:39 145.980
CUBEBUG 1 25 Aug 12:57:18 13:01:43 63° 101° (E) 13:06:05 437.445
QB50P2 25 Aug 13:07:51 13:10:55 19° 266° (W) 13:13:59 145.880/145.840
DUCHIFAT 1 25 Aug 13:08:46 13:12:05 22° 265° (W) 13:15:25 145.980
POLYITAN 1 25 Aug 13:10:25 13:13:27 19° 266° (W) 13:16:30 437.675
JAS-2 25 Aug 13:10:48 13:15:53 57° 260° (W) 13:21:11 435.910
DX 1 25 Aug 13:14:37 13:18:54 52° 100° (E) 13:23:10 434.975-435.025
GONETS M04 25 Aug 13:16:14 13:24:59 86° 279° (W) 13:33:51
ESTCUBE 1 25 Aug 13:17:31 13:21:54 50° 287° (WNW) 13:26:17 437.505/2401.250
Oscar 19 25 Aug 13:18:46 13:23:25 35° 69° (ENE) 13:28:06 437.125/150
NANOSAT C BR1 25 Aug 13:22:15 13:24:42 15° 268° (W) 13:27:11 145.865
SPROUT 25 Aug 13:27:27 13:31:41 55° 100° (E) 13:35:51 437.525
AIST 2 25 Aug 13:29:37 13:33:40 63° 118° (ESE) 13:37:45 435.215
50 SAT 25 Aug 13:30:29 13:34:02 53° 286° (WNW) 13:37:35 437.505
PCSat 25 Aug 13:34:26 13:39:46 58° 301° (WNW) 13:45:08 145.827
RS-15 25 Aug 13:34:32 13:44:50 33° 256° (WSW) 13:54:59 29.354- 29.394
AISAT 25 Aug 13:36:52 13:41:15 55° 286° (WNW) 13:45:35 437.250
AUBIESAT-1 25 Aug 13:54:20 13:56:42 15° 301° (WNW) 13:58:56 437.475
TISAT 1 25 Aug 13:56:45 14:00:09 23° 95° (E) 14:03:31 437.305
M-CUBED/EXP-1 PRIME 25 Aug 13:58:25 13:59:58 12° 303° (WNW) 14:01:28 437.505
UKube-1 25 Aug 14:00:11 14:04:28 60° 286° (WNW) 14:08:44 .
Gurwin Techsat 1B 25 Aug 14:07:43 14:12:48 48° 71° (ENE) 14:17:53 435.225
AO-7 25 Aug 14:12:41 14:17:58 19° 51° (NE) 14:23:14 29.400- 29.500
Cosmos 2499 25 Aug 14:14:08 14:22:00 46° 283° (WNW) 14:29:21 435.465 / 435.565
JUGNU 25 Aug 14:15:04 14:16:40 11° 179° (S) 14:18:16 437.505
VELOX 1 25 Aug 14:25:32 14:28:38 19° 294° (WNW) 14:31:43 145.980
ITAMSAT 1 25 Aug 14:28:01 14:32:00 23° 65° (ENE) 14:35:59 435.822/435.867
CUBEBUG 1 25 Aug 14:35:41 14:37:25 12° 297° (WNW) 14:39:09 437.445
DX 1 25 Aug 14:52:18 14:54:38 14° 296° (WNW) 14:56:58 434.975-435.025
ITUPSAT 1 25 Aug 14:52:45 14:56:02 18° 93° (E) 14:59:20 437.325
ISS 25 Aug 14:54:40 14:56:07 12° 15° (NNE) 14:57:35 145.825
Oscar 19 25 Aug 14:58:31 15:02:45 26° 265° (W) 15:07:03 437.125/150
SPROUT 25 Aug 15:05:14 15:07:07 13° 296° (WNW) 15:09:00 437.525
AIST 2 25 Aug 15:10:17 15:12:33 14° 316° (NW) 15:14:50 435.215
AO-85 25 Aug 15:11:30 15:15:29 37° 52° (NE) 15:19:12 145.980
O/OREOS (USA 219) 25 Aug 15:15:41 15:20:09 75° 291° (WNW) 15:24:41 437.305
GONETS M04 25 Aug 15:17:55 15:23:10 17° 298° (WNW) 15:28:28
PCSat 25 Aug 15:23:34 15:24:21 10° 321° (NW) 15:25:08 145.827
SWISSCUBE 25 Aug 15:26:15 15:30:51 47° 100° (E) 15:35:26 437.505
TISAT 1 25 Aug 15:32:12 15:35:44 26° 291° (WNW) 15:39:14 437.305
BEESAT 25 Aug 15:43:35 15:48:20 65° 102° (ESE) 15:53:03 436.000
SRMSAT 25 Aug 15:47:57 15:48:45 10° 174° (S) 15:49:35 437.500
Gurwin Techsat 1B 25 Aug 15:49:07 15:52:58 20° 267° (W) 15:56:49 435.225
AO-7 25 Aug 16:01:08 16:09:30 83° 71° (ENE) 16:17:54 29.400- 29.500
ITAMSAT 1 25 Aug 16:06:16 16:11:10 42° 261° (W) 16:16:06 435.822/435.867
MOZHAYETS 4 25 Aug 16:20:01 16:23:36 22° 94° (E) 16:27:10
ITUPSAT 1 25 Aug 16:29:33 16:34:03 43° 289° (WNW) 16:38:32 437.325
ISS 25 Aug 16:30:06 16:33:16 43° 34° (NNE) 16:36:25 145.825
KKS-1 25 Aug 16:32:34 16:36:05 22° 95° (E) 16:39:35 437.445
HORYU 2 25 Aug 16:51:40 16:55:27 28° 69° (ENE) 16:59:15 437.375
AO-85 25 Aug 16:52:48 16:55:32 17° 251° (WSW) 16:58:10 145.980
NOAA 15 25 Aug 17:02:51 17:03:42 10° 58° (ENE) 17:04:33 137.62
SWISSCUBE 25 Aug 17:05:05 17:08:15 18° 295° (WNW) 17:11:25 437.505
STARS 25 Aug 17:14:59 17:18:55 31° 97° (E) 17:22:48 437.465
YUBILEINY 25 Aug 17:17:46 17:25:07 29° 69° (ENE) 17:32:21 435.215
BEESAT 25 Aug 17:23:15 17:25:33 13° 298° (WNW) 17:27:49 436.000
CUBESAT XI-V 25 Aug 17:33:42 17:36:49 17° 92° (E) 17:39:54 437.345
SRMSAT 25 Aug 17:35:48 17:36:58 11° 185° (S) 17:38:09 437.500
